SWOT

Last updated on Sat Dec 13 2025 00:02:32 GMT+0000 (Coordinated Universal Time)

1 54754U 22173A 25346.27828617 .00000076 00000+0 53174-4 0 9997 2 54754 77.6106 287.6125 0000338 112.0086 248.1102 14.00174617152992
UTC large
Height (km)
Speed (km/s)
/
Latitude / Longitude
Inclination (degrees)
Orbital Period (minutes)
Azimuth
Elevation
Range (km)
Doppler Factor

Next 0 passes for location: London (51.5072 / 0.1276)

Sorry there are no passes over London.